Location: Newark
(13.8625°N, 100.5144°E)
Time: 18:55:12
(UTC+00:00)

LightSail 2 - Pass Details

Date: 15 May 2021
Orbit: 685 x 700 km, 24.0° (Epoch: 11 June)

Event Time Altitude Azimuth Distance (km) Brightness Sun altitude
Exits shadow 20:51:45 38° 343° (NNW) 1,048 6.0 -27.2°
Maximum altitude 20:52:48 43° 15° (NNE) 959 6.0 -26.9°
Drops below altitude 10° 20:57:35 10° 87° (E) 2,128 8.4 -25.9°
Sets 21:00:05 0° 94° (E) 3,041 9.3 -25.4°
